Voltar ao catálogo

STARLINK-36464

AtivoComunicaçõesVLEO
NORAD 67428·PAYLOAD·🇺🇸 United States

Lançado Jan 12, 2026 de Cape Canaveral Space Force Station

Loading…

Próximas Passagens (próximas 24 horas)

TLE

AtualizadoSource: CelesTrak SupGP

Época: Sep 14, 2026, 21:38 UTC

1 67428C 26005AA  26257.90187500  .00039600  00000+0  14346-2 0  2576
2 67428  43.0023 249.3560 0001340 263.8811 131.5263 15.27552211    10

Acompanhe STARLINK-36464 em tempo real com AllMySat

Download on the App Store